User: anonymous   Login
Location: Pian di Sc�
(43.6333°N, 11.5500°E)
Time: 02:04:49
(UTC+00:00)
Language:

Cosmos 1758 Rocket - Orbit

View from above orbital plane
View from above orbital plane
View from above satellite
View from above satellite

Ground track
Ground track

The orbit data is extracted from the following two-line orbital elements,

1 16792U 86046B   20302.76457075  .00000111  00000-0  10642-4 0  9997
2 16792  82.4796 125.3237 0023621 200.9876 169.7158 14.83255416857143
Epoch (UTC): 28 October 2020 18:20:58
Eccentricity: 0.0023621
inclination: 82.4796°
perigee height: 602 km
apogee height: 635 km
right ascension of ascending node: 125.3237°
argument of perigee: 200.9876°
revolutions per day: 14.83255416
mean anomaly at epoch: 169.7158°
orbit number at epoch: 85714

The dashed part of the orbit path shows where the satellite is in the earth's shadow,  

DLR